Regional Weather Roundup
Issued by NWS

Home | Current Version | Previous Version | Graphics & Text | Print | Product List | Glossary On
Versions: 1 2 3 4 5 6 7 8 9 10 11 12 13 14 15 16 17 18 19 20 21 22 23 24 25 26 27 28 29 30 31 32 33 34 35 36 37 38 39 40 41 42 43 44 45 46 47 48 49 50
000
ASUS43 KTOP 222059
RWRKS

WEATHER ROUNDUP FOR KANSAS
NATIONAL WEATHER SERVICE GOODLAND KS
300 PM CST MON DEC 22 2014

NOTE:  "FAIR" INDICATES FEW OR NO CLOUDS BELOW 12,000 FEET WITH NO
SIGNIFICANT WEATHER AND/OR OBSTRUCTIONS TO VISIBILITY.

KSZ001>006-013>018-027>032-041>047-222200-
NORTHWEST KANSAS

CITY           SKY/WX    TMP DP  RH WIND       PRES   REMARKS
GOODLAND       MOSUNNY   45  21  38 NW25G37   29.62F
HAYS           SUNNY     54  27  35 NW17G29   29.54R
HILL CITY      SUNNY     51  25  36 NW17G32   29.55S
RUSSELL        MOSUNNY   53  25  33 NW28G36   29.51F
$$

KSZ061>065-074>080-084>089-222200-
SOUTHWEST KANSAS

CITY           SKY/WX    TMP DP  RH WIND       PRES   REMARKS
DODGE CITY     SUNNY     52  24  33 NW22G32   29.60S
ELKHART          N/A     47  25  42 N7          N/A
GARDEN CITY    SUNNY     50  21  32 N21G30    29.60F
GREAT BEND     MOSUNNY   52  28  40 NW18G25   29.54S
LIBERAL        SUNNY     52  27  37 N14       29.65S
$$

KSZ066>073-081>083-090>101-222200-
SOUTHEAST KANSAS

CITY           SKY/WX    TMP DP  RH WIND       PRES   REMARKS
CHANUTE        CLOUDY    49  47  93 W9        29.48S
COFFEYVILLE    CLOUDY    51  48  89 W9        29.50S
HUTCHINSON     PTSUNNY   54  34  46 NW21G26   29.53S
MEDICINE LODGE   N/A     54  32  43 NW17G26   29.56S
NEWTON         PTSUNNY   48  36  61 NW14G22   29.54R
PARSONS        CLOUDY    51  48  89 W12       29.51R
WICHITA INTL   MOSUNNY   54  38  54 NW17G25   29.54S
WICHITA JABRA  PTSUNNY   51  38  60 NW16      29.53S
WICHITA MCCONL MOSUNNY   50  38  63 N16G23    29.54S
WINFIELD       PTSUNNY   50  42  74 NW15      29.55R
$$

KSZ007>012-019>026-033>040-048>060-102>105-222200-
NORTHEAST KANSAS

CITY           SKY/WX    TMP DP  RH WIND       PRES   REMARKS
CONCORDIA      PTSUNNY   50  35  56 NW16G29   29.47S
EMPORIA        CLOUDY    47  39  74 W13       29.49R
LAWRENCE       CLOUDY    48  44  86 W13       29.44F
MANHATTAN      CLOUDY    48  41  76 NW5       29.48S
OLATHE IND     CLOUDY    47  45  93 SW8       29.44F
OLATHE EXE     CLOUDY    47  45  93 W8        29.43F
SALINA         PTSUNNY   52  35  52 NW15      29.50F
TOPEKA BILLARD CLOUDY    48  43  82 W12       29.46R
TOPEKA FORBES  CLOUDY    48  42  80 W14       29.45R
$$



USA.gov is the U.S. government's official web portal to all federal, state and local government web resources and services.